Weather History for Figari, France

Change the Weather History Date:

Saturday, September 21, 2013

  Actual Average Record
Temperature  
Mean Temperature 66 °F -  
Max Temperature 82 °F 72 °F 88 °F (2014)
Min Temperature 50 °F 58 °F 48 °F (2011)
Cooling Degree Days 1    
Growing Degree Days 16 (Base 50)    
Moisture  
Dew Point 56 °F    
Average Humidity 76    
Maximum Humidity 100    
Minimum Humidity 39    
Precipitation  
Precipitation 0.00 in - - ()
Sea Level Pressure  
Sea Level Pressure 30.10 in    
Wind  
Wind Speed 3 mph ()    
Max Wind Speed 9 mph    
Max Gust Speed -    
Visibility 6.2 miles    
Events      
Averages and records for this station are not official NWS values.
T = Trace of Precipitation, MM = Missing Value Source: Averaged Metar Reports

Daily Weather History Graph

Daily Weather History Graph

Search for Another Location

Airport:

Trip Planner

Search our weather history database for the weather conditions in past years. The results will help you decide how hot, cold, wet, or windy it might be!

Date:

Astronomy

Sep. 21, 2013 Rise Set
Actual Time 7:10 AM CEST 7:22 PM CEST
Civil Twilight 6:42 AM CEST 7:50 PM CEST
Nautical Twilight 6:09 AM CEST 8:22 PM CEST
Astronomical Twilight 5:36 AM CEST 8:55 PM CEST
Moon 8:20 PM CEST (9/21) 9:13 AM CEST (9/21)
Length of Visible Light 13h 07m
Length of Day
12h 12m
Waning Gibbous, 95% of the Moon is Illuminated
Sep 21
Waning Gibbous
Sep 27
Last Quarter
Oct 5
New
Oct 12
First Quarter
Oct 19
Full

Hourly Weather History & Observations

Time (CEST) Temp. Heat Index Dew Point Humidity Pressure Visibility Wind Dir Wind Speed Gust Speed Precip Events Conditions
12:00 AM 55.4 °F - 51.8 °F 88% 30.04 in 6.2 mi NNE 2.3 mph - N/A   Unknown
12:30 AM 55.4 °F - 51.8 °F 88% 30.04 in 6.2 mi Calm Calm - N/A   Unknown
1:00 AM 53.6 °F - 51.8 °F 94% 30.04 in 6.2 mi Variable 2.3 mph - N/A   Unknown
1:30 AM 53.6 °F - 51.8 °F 94% 30.04 in 6.2 mi NNE 3.5 mph - N/A   Unknown
2:00 AM 51.8 °F - 50.0 °F 94% 30.04 in 6.2 mi NE 2.3 mph - N/A   Unknown
2:30 AM 53.6 °F - 51.8 °F 94% 30.06 in 6.2 mi NNE 3.5 mph - N/A   Unknown
3:00 AM 51.8 °F - 50.0 °F 94% 30.06 in 6.2 mi NNE 2.3 mph - N/A   Unknown
3:30 AM 50.0 °F - 48.2 °F 94% 30.06 in 6.2 mi Variable 1.2 mph - N/A   Unknown
4:00 AM 50.0 °F - 48.2 °F 94% 30.06 in 6.2 mi NE 2.3 mph - N/A   Unknown
4:30 AM 50.0 °F - 48.2 °F 94% 30.06 in 6.2 mi Calm Calm - N/A   Unknown
5:00 AM 50.0 °F - 48.2 °F 94% 30.06 in 6.2 mi Variable 1.2 mph - N/A   Unknown
5:30 AM 50.0 °F - 48.2 °F 94% 30.06 in 6.2 mi NNE 2.3 mph - N/A   Unknown
6:00 AM 50.0 °F - 48.2 °F 94% 30.06 in 6.2 mi NNE 3.5 mph - N/A   Unknown
6:30 AM 50.0 °F - 48.2 °F 94% 30.06 in 6.2 mi Variable 2.3 mph - N/A   Unknown
7:00 AM 50.0 °F - 48.2 °F 94% 30.06 in 6.2 mi Variable 2.3 mph - N/A   Unknown
7:30 AM 50.0 °F - 50.0 °F 100% 30.06 in 6.2 mi Calm Calm - N/A   Unknown
8:00 AM 53.6 °F - 51.8 °F 94% 30.09 in 6.2 mi Variable 3.5 mph - N/A   Unknown
8:30 AM 55.4 °F - 55.4 °F 100% 30.09 in 6.2 mi Calm Calm - N/A   Unknown
9:00 AM 62.6 °F - 60.8 °F 94% 30.09 in 6.2 mi Calm Calm - N/A   Unknown
9:30 AM 68.0 °F - 62.6 °F 83% 30.09 in 6.2 mi Calm Calm - N/A   Unknown
10:00 AM 71.6 °F - 64.4 °F 78% 30.09 in 6.2 mi Variable 2.3 mph - N/A   Unknown
10:30 AM 73.4 °F - 62.6 °F 69% 30.09 in 6.2 mi Variable 1.2 mph - N/A   Unknown
11:00 AM 77.0 °F - 64.4 °F 65% 30.12 in 6.2 mi SW 5.8 mph - N/A   Unknown
11:30 AM 75.2 °F - 60.8 °F 61% 30.12 in 6.2 mi SW 6.9 mph - N/A   Unknown
12:00 PM 78.8 °F - 62.6 °F 57% 30.12 in 6.2 mi SSW 8.1 mph - N/A   Unknown
12:30 PM 78.8 °F - 64.4 °F 61% 30.12 in 6.2 mi SSW 8.1 mph - N/A   Unknown
1:00 PM 77.0 °F - 64.4 °F 65% 30.12 in 6.2 mi SSW 8.1 mph - N/A   Unknown
1:30 PM 78.8 °F - 62.6 °F 57% 30.12 in 6.2 mi South 9.2 mph - N/A   Unknown
2:00 PM 80.6 °F 81.1 °F 59.0 °F 48% 30.12 in 6.2 mi SSW 9.2 mph - N/A   Unknown
2:30 PM 80.6 °F 81.1 °F 59.0 °F 48% 30.12 in 6.2 mi SSW 6.9 mph - N/A   Unknown
3:00 PM 80.6 °F 81.1 °F 59.0 °F 48% 30.12 in 6.2 mi South 5.8 mph - N/A   Unknown
3:30 PM 82.4 °F 82.5 °F 59.0 °F 45% 30.09 in 6.2 mi SSW 5.8 mph - N/A   Unknown
4:00 PM 82.4 °F 81.7 °F 55.4 °F 39% 30.09 in 6.2 mi SSW 6.9 mph - N/A   Unknown
4:30 PM 80.6 °F 80.8 °F 57.2 °F 45% 30.09 in 6.2 mi SSW 8.1 mph - N/A   Unknown
5:00 PM 80.6 °F 80.8 °F 57.2 °F 45% 30.12 in 6.2 mi SSW 5.8 mph - N/A   Unknown
5:30 PM 78.8 °F - 57.2 °F 47% 30.12 in 6.2 mi South 5.8 mph - N/A   Unknown
6:00 PM 78.8 °F - 57.2 °F 47% 30.12 in 6.2 mi SW 4.6 mph - N/A   Unknown
6:30 PM 77.0 °F - 59.0 °F 54% 30.12 in 6.2 mi South 5.8 mph - N/A   Unknown
7:00 PM 73.4 °F - 60.8 °F 65% 30.12 in 6.2 mi SSW 4.6 mph - N/A   Unknown
7:30 PM 69.8 °F - 60.8 °F 73% 30.12 in 6.2 mi Variable 2.3 mph - N/A   Unknown
8:00 PM 66.2 °F - 59.0 °F 78% 30.12 in 6.2 mi Variable 3.5 mph - N/A   Unknown
8:30 PM 64.4 °F - 59.0 °F 83% 30.12 in 6.2 mi NE 3.5 mph - N/A   Unknown
9:00 PM 62.6 °F - 57.2 °F 82% 30.15 in 6.2 mi NNE 3.5 mph - N/A   Unknown
9:30 PM 60.8 °F - 55.4 °F 82% 30.15 in 6.2 mi NNE 3.5 mph - N/A   Unknown
10:00 PM 59.0 °F - 53.6 °F 82% 30.15 in 6.2 mi NE 1.2 mph - N/A   Unknown
10:30 PM 57.2 °F - 53.6 °F 88% 30.15 in 6.2 mi NNE 2.3 mph - N/A   Unknown
11:00 PM 55.4 °F - 53.6 °F 94% 30.15 in 6.2 mi Calm Calm - N/A   Unknown
11:30 PM 55.4 °F - 51.8 °F 88% 30.15 in 6.2 mi Calm Calm - N/A   Unknown